SCP
0 0 0 0 0 0 0 0 0 0 0 0 0 0 0 0 0 0 0 0 0 0 0 0 0 0 0
0 0 0 0 0 0 0 0 0 0 0 0 0 0 0 0 0 0 0 0 0 0 0 0 0 0 0
0 0 0 0 0 0 0 0 0 0 0 0 0 0 0 0 0 0 0 0 0 0 0 0 0 0 0
0 0 0 0 0 0 0 0 0 0 0 0 0 0 0 0 0 0 0 0 0 0 0 0 0 0 0
0 0 0 0 0 0 0 0 0 0 0 0 0 0 0 0 0 0 0 0 0 0 0 0 0 0 0
0 0 0 0 0 0 0 0 0 0 0 0 0 0 0 0 0 0 0 0 0 0 0 0 0 0 0
0 0 0 0 0 0 0 0 0 0 0 0 0 0 0 0 0 0 0 0 0 0 0 0 0 0 0
0 0 0 0 0 -0 -0 0 0 0 0 0 0 0 0 0 0 0 0 0 0 0 0 0 0 0 0
0 0 0 0 0 0 -0 -0 0 0 0 0 0 0 0 0 0 0 0 0 0 0 0 0 0 0 0
0 0 0 0 0 0 0 0 -0 -0 0 0 0 0 0 0 0 0 0 0 0 0 0 0 0 0 0
0 0 0 0 0 0 0 0 0 -0 -0 0 0 0 0 0 0 0 0 0 0 0 0 0 0 0 0
-0 0 0 0 0 0 0 0 -0 0 -0 -0 -0 0 0 0 0 0 0 0 0 0 0 0 0 0 0
0 0 0 -0 -0 -0 -0 0 0 0 0 -0 -0 0 0 0 0 0 0 0 0 0 0 0 0 0 0
0 0 0 0 0 -0 -0 -0 0 0 0 0 0 -0 0 0 0 0 0 0 0 0 0 0 0 0 0
0 0 0 0 0 0 0 -0 -0 -0 0 0 0 0 0 0 0 0 0 0 0 0 0 0 0 0 0
0 0 0 0 0 0 0 0 0 0 0 0 0 0 0 0 0 0 0 0 0 0 0 0 0 0 0
Wind_Speed_500mb
34 42 41 40 43 43 41 44 47 45 46 48 51 52 49 45 42 39 49 47 62 58 57 56 53 50 50
35 43 48 45 47 47 46 48 50 52 52 52 54 56 52 46 47 43 49 55 65 62 61 54 60 57 59
37 45 49 52 53 51 51 51 54 56 56 56 54 55 53 49 43 48 51 53 62 64 60 52 64 67 67
35 37 37 58 60 61 56 57 58 60 61 61 58 50 49 49 45 53 55 56 58 69 66 56 69 78 69
42 42 44 46 39 64 63 59 65 68 66 68 66 58 54 55 53 57 65 61 64 67 70 67 63 75 64
40 44 47 46 47 38 73 72 73 80 81 79 79 71 64 69 68 61 76 68 70 69 71 71 70 66 61
30 34 45 51 55 57 42 24 73 76 92 90 88 82 78 77 78 69 82 71 72 72 69 74 81 78 69
32 35 38 40 51 64 65 58 30 59 91 95 91 89 89 81 84 78 84 81 76 74 75 75 74 77 77
49 51 50 50 52 54 58 50 66 60 38 89 96 97 92 88 89 87 82 86 80 77 77 75 78 79 81
56 62 67 69 72 72 63 61 50 54 69 45 96 110 101 92 93 96 89 92 91 86 84 80 83 85 91
65 72 77 81 83 90 90 81 75 67 63 69 60 102 104 103 101 102 98 98 100 96 90 86 88 81 95
91 94 96 101 101 97 95 95 92 89 84 68 77 63 97 120 107 113 111 101 103 106 98 89 88 90 85
99 100 105 106 103 100 97 98 101 102 99 93 79 86 71 83 115 122 115 111 109 111 102 97 94 93 93
96 100 99 104 112 114 112 108 104 100 101 99 94 92 98 82 75 124 122 113 107 121 107 97 84 91 97
81 86 92 97 99 103 103 101 106 101 96 95 98 92 87 99 100 73 130 127 122 121 114 87 54 49 87
73 75 76 82 88 87 92 92 84 82 86 84 87 86 83 84 106 95 94 147 132 130 124 115 95 80 72
Wind_Direction_500mb
244 243 245 237 231 222 216 220 220 220 214 218 217 219 221 224 226 227 216 201 178 177 183 183 188 184 183
257 249 249 244 235 225 224 223 223 224 222 223 227 229 228 228 228 224 216 200 187 184 193 184 185 188 190
259 255 253 249 248 231 229 232 229 227 228 229 225 228 229 225 225 218 216 200 195 192 199 195 188 193 195
272 268 273 257 244 237 237 229 235 231 231 231 228 223 232 222 223 217 207 200 200 199 199 200 209 196 194
277 275 270 273 265 260 233 236 237 236 235 231 229 229 229 223 222 216 208 204 205 203 204 200 208 193 194
285 279 278 278 267 273 251 240 235 228 233 232 232 231 231 221 221 221 211 212 206 205 209 207 206 205 209
310 301 283 280 279 276 278 276 237 235 229 228 232 228 226 224 222 219 214 214 209 206 212 215 209 214 216
312 310 307 302 290 288 288 282 271 247 233 229 231 226 224 225 225 221 216 213 213 211 213 219 212 213 217
309 306 304 302 299 296 296 299 281 272 246 235 232 231 226 227 227 225 223 219 216 214 218 218 218 215 213
303 300 299 297 295 292 291 290 292 286 274 263 238 232 229 226 227 227 224 221 218 216 217 218 219 224 218
293 292 291 288 285 287 283 280 281 282 288 275 267 235 232 225 227 229 225 226 221 216 215 216 219 218 217
295 295 293 290 286 279 272 272 273 275 279 277 269 262 232 228 219 226 227 225 229 216 216 215 217 218 223
296 293 289 287 285 280 275 269 266 266 269 273 265 267 254 225 223 220 224 226 225 224 212 213 217 219 221
293 289 286 283 280 280 278 273 269 266 263 265 267 256 255 250 232 219 213 212 217 223 209 210 203 211 217
291 289 288 286 283 280 278 278 275 271 266 261 261 258 254 254 250 224 215 211 210 219 215 208 197 209 208
300 295 291 288 284 281 281 280 276 269 265 259 255 254 247 250 245 247 220 216 209 214 210 213 217 213 193
Wind_Speed_850mb
34 42 41 40 43 43 41 44 47 45 46 48 51 52 49 45 42 39 49 47 62 58 57 56 53 50 50
35 43 48 45 47 47 46 48 50 52 52 52 54 56 52 46 47 43 49 55 65 62 61 54 60 57 59
37 45 49 52 53 51 51 51 54 56 56 56 54 55 53 49 43 48 51 53 62 64 60 52 64 67 67
35 37 37 58 60 61 56 57 58 60 61 61 58 50 49 49 45 53 55 56 58 69 66 56 69 78 69
42 42 44 46 39 64 63 59 65 68 66 68 66 58 54 55 53 57 65 61 64 67 70 67 63 75 64
40 44 47 46 47 38 73 72 73 80 81 79 79 71 64 69 68 61 76 68 70 69 71 71 70 66 61
30 34 45 51 55 57 42 24 73 76 92 90 88 82 78 77 78 69 82 71 72 72 69 74 81 78 69
32 35 38 40 51 64 65 58 30 59 91 95 91 89 89 81 84 78 84 81 76 74 75 75 74 77 77
49 51 50 50 52 54 58 50 66 60 38 89 96 97 92 88 89 87 82 86 80 77 77 75 78 79 81
56 62 67 69 72 72 63 61 50 54 69 45 96 110 101 92 93 96 89 92 91 86 84 80 83 85 91
65 72 77 81 83 90 90 81 75 67 63 69 60 102 104 103 101 102 98 98 100 96 90 86 88 81 95
91 94 96 101 101 97 95 95 92 89 84 68 77 63 97 120 107 113 111 101 103 106 98 89 88 90 85
99 100 105 106 103 100 97 98 101 102 99 93 79 86 71 83 115 122 115 111 109 111 102 97 94 93 93
96 100 99 104 112 114 112 108 104 100 101 99 94 92 98 82 75 124 122 113 107 121 107 97 84 91 97
81 86 92 97 99 103 103 101 106 101 96 95 98 92 87 99 100 73 130 127 122 121 114 87 54 49 87
73 75 76 82 88 87 92 92 84 82 86 84 87 86 83 84 106 95 94 147 132 130 124 115 95 80 72
Wind_Direction_850mb
244 243 245 237 231 222 216 220 220 220 214 218 217 219 221 224 226 227 216 201 178 177 183 183 188 184 183
257 249 249 244 235 225 224 223 223 224 222 223 227 229 228 228 228 224 216 200 187 184 193 184 185 188 190
259 255 253 249 248 231 229 232 229 227 228 229 225 228 229 225 225 218 216 200 195 192 199 195 188 193 195
272 268 273 257 244 237 237 229 235 231 231 231 228 223 232 222 223 217 207 200 200 199 199 200 209 196 194
277 275 270 273 265 260 233 236 237 236 235 231 229 229 229 223 222 216 208 204 205 203 204 200 208 193 194
285 279 278 278 267 273 251 240 235 228 233 232 232 231 231 221 221 221 211 212 206 205 209 207 206 205 209
310 301 283 280 279 276 278 276 237 235 229 228 232 228 226 224 222 219 214 214 209 206 212 215 209 214 216
312 310 307 302 290 288 288 282 271 247 233 229 231 226 224 225 225 221 216 213 213 211 213 219 212 213 217
309 306 304 302 299 296 296 299 281 272 246 235 232 231 226 227 227 225 223 219 216 214 218 218 218 215 213
303 300 299 297 295 292 291 290 292 286 274 263 238 232 229 226 227 227 224 221 218 216 217 218 219 224 218
293 292 291 288 285 287 283 280 281 282 288 275 267 235 232 225 227 229 225 226 221 216 215 216 219 218 217
295 295 293 290 286 279 272 272 273 275 279 277 269 262 232 228 219 226 227 225 229 216 216 215 217 218 223
296 293 289 287 285 280 275 269 266 266 269 273 265 267 254 225 223 220 224 226 225 224 212 213 217 219 221
293 289 286 283 280 280 278 273 269 266 263 265 267 256 255 250 232 219 213 212 217 223 209 210 203 211 217
291 289 288 286 283 280 278 278 275 271 266 261 261 258 254 254 250 224 215 211 210 219 215 208 197 209 208
300 295 291 288 284 281 281 280 276 269 265 259 255 254 247 250 245 247 220 216 209 214 210 213 217 213 193